Flight Track Log - Related Links

Times and Time Zones

All times are in EDT time to prevent confusion due to time zone crossing. See the GGN7280 flight status page for this flight to view local times or setup timezone preferences in your user account.

Time Position Orientation Groundspeed Altitude Reporting Facility
EDT Latitude Longitude Course Direction KTS MPH feet Rate Location/Type
Sat 09:40:01 AM 43.6667 -79.5667 90° East 150 173 1,700  Level Toronto Center
Sat 09:41:01 AM 43.6667 -79.5000 90° East 190 219 3,600 1,750 Climbing Toronto Center
Sat 09:42:01 AM 43.6333 -79.4333 125° Southeast 210 242 5,200 1,500 Climbing Toronto Center
Sat 09:43:01 AM 43.6000 -79.3500 119° Southeast 210 242 6,600 1,350 Climbing Toronto Center
Sat 09:44:01 AM 43.5833 -79.2833 109° East 220 253 7,900 1,350 Climbing Toronto Center
Sat 09:45:01 AM 43.5833 -79.2000 90° East 230 265 9,300 1,400 Climbing Toronto Center
Sat 09:46:01 AM 43.5667 -79.1000 103° East 230 265 10,700 1,400 Climbing Toronto Center
Sat 09:47:01 AM 43.5500 -79.0167 105° East 230 265 12,100 1,200 Climbing Toronto Center
Sat 09:48:01 AM 43.5333 -78.9167 103° East 240 276 13,100 1,150 Climbing Toronto Center
Sat 09:49:01 AM 43.5333 -78.8333 90° East 250 288 14,400 1,200 Climbing Toronto Center
Sat 09:50:01 AM 43.5167 -78.7333 103° East 260 299 15,500 1,100 Climbing Toronto Center
Sat 09:51:01 AM 43.5000 -78.6167 101° East 260 299 16,600 1,053 Climbing Toronto Center
Sat 09:51:55 AM 43.4950 -78.5658 98° East 259 298 17,500 895 Climbing Cleveland Center
Sat 09:52:55 AM 43.4869 -78.4631 96° East 259 298 18,300 850 Climbing Cleveland Center
Sat 09:53:55 AM 43.4706 -78.3606 102° East 259 298 19,200 850 Climbing Cleveland Center
Sat 09:54:55 AM 43.4497 -78.2586 106° East 264 304 20,000 800 Climbing Cleveland Center
Sat 09:55:55 AM 43.4392 -78.1531 98° East 269 310 20,800 750 Climbing Cleveland Center
Sat 09:56:55 AM 43.4289 -78.0619 99° East 269 310 21,500 700 Climbing Cleveland Center
Sat 09:57:55 AM 43.4164 -77.9597 100° East 274 315 22,200 700 Climbing Cleveland Center
Sat 09:58:55 AM 43.4014 -77.8575 101° East 274 315 22,900 800 Climbing Cleveland Center
Sat 09:59:55 AM 43.3886 -77.7550 100° East 274 315 23,800 550 Climbing Cleveland Center
Sat 10:00:55 AM 43.3714 -77.6531 103° East 274 315 24,000 100 Climbing Cleveland Center
Sat 10:01:55 AM 43.3519 -77.5456 104° East 274 315 24,000  Level Cleveland Center
Sat 10:02:55 AM 43.3406 -77.4319 98° East 279 321 24,000 258 Level Cleveland Center
Sat 10:05:01 AM 43.2833 -77.1667 106° East 290 334 24,800 323 Climbing Toronto Center
Sat 10:06:01 AM 43.2833 -77.0667 90° East 280 322 25,000 100 Climbing Toronto Center
Sat 10:07:01 AM 43.2667 -76.9500 101° East 290 334 25,000 -50 Level Toronto Center
Sat 10:08:01 AM 43.2500 -76.8333 101° East 290 334 24,900 -50 Descending Toronto Center
Sat 10:09:01 AM 43.2333 -76.7500 105° East 280 322 24,900 50 Level Toronto Center
Sat 10:10:01 AM 43.2000 -76.6333 111° Southeast 280 322 25,000  Climbing Toronto Center
Sat 10:11:01 AM 43.2000 -76.5167 90° East 280 322 24,900  Descending Toronto Center
Sat 10:12:01 AM 43.1833 -76.4333 105° East 280 322 25,000 50 Climbing Toronto Center
Sat 10:13:01 AM 43.1667 -76.3333 103° East 280 322 25,000  Level Toronto Center
Sat 10:13:23 AM 43.1742 -76.3239 43° Northeast 276 318 25,000 -293 Level Boston Center
Sat 10:14:23 AM 43.1589 -76.2175 101° East 276 318 24,600 -455 Descending Boston Center
Sat 10:15:35 AM 43.1394 -76.1111 104° East 281 323 24,000 -727 Descending Boston Center
Sat 10:16:35 AM 43.1167 -75.9758 103° East 281 323 23,000 -900 Descending Boston Center
Sat 10:17:35 AM 43.1014 -75.8642 101° East 286 329 22,200 -800 Descending Boston Center
Sat 10:18:35 AM 43.0836 -75.7550 103° East 291 335 21,400 -800 Descending Boston Center
Sat 10:19:35 AM 43.0642 -75.6403 103° East 296 341 20,600 -800 Descending Boston Center
Sat 10:20:35 AM 43.0464 -75.5286 102° East 301 346 19,800 -850 Descending Boston Center
Sat 10:21:35 AM 43.0264 -75.4167 104° East 301 346 18,900 -900 Descending Boston Center
Sat 10:22:35 AM 43.0064 -75.2994 103° East 306 352 18,000 -800 Descending Boston Center
Sat 10:23:35 AM 42.9883 -75.1878 102° East 306 352 17,300 -600 Descending Boston Center
Sat 10:24:35 AM 42.9639 -75.0731 106° East 306 352 16,800 -673 Descending Boston Center
Sat 10:25:22 AM 42.9344 -74.9953 117° Southeast 323 372 16,100 -935 Descending Boston Center
Sat 10:25:52 AM 42.9189 -74.9408 111° Southeast 298 343 15,600 -904 Descending Boston Center
Sat 10:26:35 AM 42.8956 -74.8719 115° Southeast 295 339 15,000 -1,082 Descending Boston Center
Sat 10:26:53 AM 42.8836 -74.8372 115° Southeast 294 338 14,500 -1,000 Descending Boston Center
Sat 10:27:35 AM 42.8661 -74.7772 112° Southeast 295 339 14,000 -1,100 Descending Boston Center
Sat 10:27:53 AM 42.8503 -74.7369 118° Southeast 298 343 13,400 -1,000 Descending Boston Center
Sat 10:28:35 AM 42.8289 -74.6625 111° Southeast 297 342 13,000 -896 Descending Boston Center
Sat 10:29:00 AM 42.8108 -74.6194 120° Southeast 293 337 12,400 -1,000 Descending Boston Center
Sat 10:29:35 AM 42.7972 -74.5736 112° Southeast 290 334 12,000 -1,091 Descending Boston Center
Sat 10:29:55 AM 42.7853 -74.5364 114° Southeast 289 333 11,400 -1,400 Descending Boston Center
Sat 10:30:35 AM 42.7597 -74.4647 116° Southeast 285 328 10,600 -1,400 Descending Boston Center
Sat 10:30:55 AM 42.7478 -74.4278 114° Southeast 291 335 10,000 -1,400 Descending Boston Center
Sat 10:31:35 AM 42.7342 -74.3736 109° East 285 328 9,200 -1,279 Descending Boston Center
Sat 10:31:56 AM 42.7183 -74.3250 114° Southeast 290 334 8,700 -1,400 Descending Boston Center
Sat 10:32:35 AM 42.7006 -74.2594 110° East 285 328 7,800 -1,279 Descending Boston Center
Sat 10:32:57 AM 42.6950 -74.2225 102° East 290 334 7,400 -1,000 Descending Boston Center
Sat 10:33:35 AM 42.6769 -74.1683 114° Southeast 285 328 6,800 -1,100 Descending Boston Center
Sat 10:33:57 AM 42.6631 -74.1228 113° Southeast 291 335 6,300 -1,000 Descending Boston Center
Sat 10:34:35 AM 42.6431 -74.0658 116° Southeast 285 328 5,800 -982 Descending Boston Center
Sat 10:34:52 AM 42.6353 -74.0347 109° East 269 310 5,400 -917 Descending Boston Center
Sat 10:35:47 AM 42.6131 -73.9692 115° Southeast 273 314 4,700 -991 Descending Boston Center
Sat 10:36:47 AM 42.5853 -73.8669 110° East 273 314 3,500 -1,100 Descending Boston Center
Sat 10:37:47 AM 42.6006 -73.7997 73° East 202 232 2,500 -700 Descending Boston Center
Sat 10:38:47 AM 42.6239 -73.7664 46° Northeast 164 189 2,100 -639 Descending Boston Center
Sat 10:39:49 AM 42.6922 -73.8072 336° Northwest 145 167 1,200 -780 Descending Boston Center
Sat 10:40:50 AM 42.7297 -73.8081 359° North 131 151 500 -689 Descending Boston Center
Sat 10:42:00 AM 42.7333 -73.8000 North  Level FlightAware Approximate

Login

Don't have an account? Register now (free) for customized features, flight alerts, and more!